{"data":{"norad_id":59689,"epoch":"2026-05-24T17:21:47.555712Z","epoch_age_seconds":99140,"freshness":"FRESH","line1":"1 59689U 24086H   26144.72346708 -.00001425  00000+0 -42277-4 0  9990","line2":"2 59689  43.0033 350.2358 0001093 271.1217  88.9509 15.27576076115745","mean_motion":15.27576076,"eccentricity":0.0001093,"inclination_deg":43.0033,"raan_deg":350.2358,"arg_perigee_deg":271.1217,"mean_anomaly_deg":88.9509,"bstar":-4.2277e-5,"rev_number":11574,"period_min":94.266990863766,"perigee_km":482.3109170079,"apogee_km":483.81077485702,"semimajor_km":6861.1978459325,"source":"CELESTRAK","updated_at":"2026-05-25T13:38:19.024442Z"}}